Weather History for KLVK - July, 2013

Change the Weather History Date:

Friday, July 19, 2013

  Actual Average Record
Temperature  
Mean Temperature 75 °F 73 °F  
Max Temperature 94 °F 88 °F 108 °F (1936)
Min Temperature 55 °F 57 °F 45 °F (1977)
Degree Days  
Heating Degree Days 0 0  
Month to date heating degree days 0 0  
Since 1 June heating degree days 5 32  
Since 1 July heating degree days 0 0  
Cooling Degree Days 10 8  
Month to date cooling degree days 178 138  
Year to date cooling degree days 469 301  
Since 1 June cooling degree days 368 248  
Growing Degree Days 24 (Base 50)    
Moisture  
Dew Point 52 °F    
Average Humidity 56    
Maximum Humidity 93    
Minimum Humidity 19    
Precipitation  
Precipitation 0.00 in 0.00 in 0.02 in (1990)
Month to date precipitation 0.00 0.00  
Year to date precipitation 2.12 9.90  
Since 1 July precipitation 0.00  
Sea Level Pressure  
Sea Level Pressure 29.87 in    
Wind  
Wind Speed 7 mph (WNW)    
Max Wind Speed 18 mph    
Max Gust Speed 22 mph    
Visibility 10 miles    
Events      
T = Trace of Precipitation, MM = Missing Value Source: NWS Daily Summary

Daily Weather History Graph

Daily Weather History Graph

Search for Another Location

Airport or City:

Trip Planner

Search our weather history database for the weather conditions in past years. The results will help you decide how hot, cold, wet, or windy it might be!

Date:

Astronomy

Jul. 19, 2013 Rise Set
Actual Time 6:00 AM PDT 8:26 PM PDT
Civil Twilight 5:30 AM PDT 8:56 PM PDT
Nautical Twilight 4:53 AM PDT 9:33 PM PDT
Astronomical Twilight 4:12 AM PDT 10:13 PM PDT
Moon 5:34 PM PDT (7/19) 2:46 AM PDT (7/19)
Length of Visible Light 15h 25m
Length of Day
14h 25m
Waxing Gibbous, 87% of the Moon is Illuminated
Jul 19
Waxing Gibbous
Jul 22
Full
Jul 29
Last Quarter
Aug 6
New
Aug 14
First Quarter

Hourly Weather History & Observations

Time (PDT) Temp. Heat Index Dew Point Humidity Pressure Visibility Wind Dir Wind Speed Gust Speed Precip Events Conditions
12:53 AM 59.0 °F - 51.1 °F 75% 29.93 in 10.0 mi WNW 10.4 mph - N/A   Clear
1:53 AM 57.9 °F - 51.1 °F 78% 29.92 in 10.0 mi WNW 8.1 mph - N/A   Clear
2:53 AM 57.0 °F - 51.1 °F 81% 29.91 in 10.0 mi WNW 6.9 mph - N/A   Clear
3:53 AM 55.9 °F - 52.0 °F 87% 29.91 in 10.0 mi West 6.9 mph - N/A   Clear
4:53 AM 55.9 °F - 52.0 °F 87% 29.91 in 10.0 mi NW 4.6 mph - N/A   Clear
5:53 AM 55.9 °F - 53.1 °F 90% 29.92 in 9.0 mi West 8.1 mph - N/A   Clear
6:53 AM 57.0 °F - 53.1 °F 87% 29.93 in 8.0 mi Calm Calm - N/A   Clear
7:26 AM 57.2 °F - 53.6 °F 88% 29.94 in 9.0 mi Calm Calm - N/A   Partly Cloudy
7:53 AM 60.1 °F - 54.0 °F 80% 29.93 in 10.0 mi Calm Calm - N/A   Partly Cloudy
8:53 AM 63.0 °F - 54.0 °F 72% 29.93 in 10.0 mi Variable 3.5 mph - N/A   Clear
9:53 AM 66.9 °F - 54.0 °F 63% 29.92 in 10.0 mi Calm Calm - N/A   Clear
10:53 AM 75.0 °F - 54.0 °F 48% 29.91 in 10.0 mi Variable 3.5 mph - N/A   Clear
11:53 AM 80.1 °F 80.0 °F 54.0 °F 40% 29.90 in 10.0 mi West 4.6 mph - N/A   Clear
12:53 PM 84.0 °F 82.5 °F 53.1 °F 34% 29.88 in 10.0 mi Variable 3.5 mph - N/A   Clear
1:53 PM 89.1 °F - 52.0 °F 28% 29.85 in 10.0 mi West 4.6 mph - N/A   Clear
2:53 PM 91.9 °F - 52.0 °F 26% 29.83 in 10.0 mi WNW 8.1 mph - N/A   Clear
3:53 PM 93.0 °F - 50.0 °F 23% 29.81 in 10.0 mi WNW 10.4 mph - N/A   Clear
4:53 PM 93.0 °F - 45.0 °F 19% 29.80 in 10.0 mi WNW 15.0 mph - N/A   Clear
5:53 PM 88.0 °F - 48.9 °F 26% 29.79 in 10.0 mi WNW 15.0 mph - N/A   Clear
6:53 PM 82.9 °F - 52.0 °F 34% 29.78 in 10.0 mi WNW 12.7 mph - N/A   Clear
7:53 PM 77.0 °F - 52.0 °F 42% 29.80 in 10.0 mi WNW 15.0 mph - N/A   Clear
8:53 PM 73.0 °F - 50.0 °F 44% 29.82 in 10.0 mi WNW 8.1 mph - N/A   Clear
9:53 PM 66.9 °F - 52.0 °F 59% 29.84 in 10.0 mi WNW 8.1 mph - N/A   Clear
10:53 PM 64.9 °F - 53.1 °F 65% 29.84 in 10.0 mi WNW 8.1 mph - N/A   Clear
11:53 PM 62.1 °F - 52.0 °F 70% 29.84 in 10.0 mi NW 8.1 mph - N/A   Clear